Date,TemperatureHighF,TemperatureAvgF,TemperatureLowF,DewpointHighF,DewpointAvgF,DewpointLowF,HumidityHigh,HumidityAvg,HumidityLow,PressureMaxIn,PressureMinIn,WindSpeedMaxMPH,WindSpeedAvgMPH,GustSpeedMaxMPH,PrecipitationSumIn
2013-3-1,26.0,22.1,14.4,18.0,15.7,10.0,84,77,72,30.41,30.26,5,2,12,0.00
2013-3-2,25.7,18.9,5.1,20.0,14.3,3.0,93,82,73,30.39,30.31,9,2,11,0.01
2013-3-3,25.3,17.9,7.1,18.0,13.5,5.0,93,83,71,30.30,30.25,8,1,11,0.00
2013-3-4,31.3,20.1,7.7,21.0,14.5,6.0,93,80,53,30.36,30.30,7,1,8,0.00
2013-3-5,35.9,20.4,2.7,25.0,14.8,0.0,94,80,56,30.35,30.16,8,1,13,0.00
2013-3-6,40.7,31.9,26.9,30.0,27.7,22.0,95,84,65,30.45,30.25,7,2,9,0.00
2013-3-7,31.0,27.2,24.8,25.0,21.4,18.0,91,79,62,30.62,30.45,6,1,8,0.00
2013-3-8,42.2,27.5,15.9,27.0,21.9,14.0,95,80,47,30.69,30.54,4,0,7,0.00
2013-3-9,44.5,31.7,15.9,34.0,24.1,14.0,96,76,45,30.54,30.10,6,1,10,0.24
2013-3-10,43.3,37.6,35.4,42.0,36.6,34.0,98,96,90,30.10,29.93,5,1,9,0.61
2013-3-11,44.8,38.6,31.1,42.0,37.8,30.0,99,97,91,29.90,29.59,7,1,9,0.23
2013-3-12,30.9,27.7,23.0,29.0,24.6,18.0,95,88,77,30.04,29.71,8,3,11,0.00
2013-3-13,28.6,24.7,21.0,20.0,17.9,13.0,93,76,54,30.40,30.04,13,5,20,0.00
2013-3-14,36.1,27.2,18.6,24.0,19.6,16.0,90,74,54,30.42,30.17,6,2,10,0.00
2013-3-15,34.1,30.5,24.2,31.0,23.7,15.0,90,76,62,30.16,30.03,11,3,16,0.00
2013-3-16,27.4,21.6,14.3,18.0,15.3,10.0,91,77,61,30.22,30.06,6,1,10,0.00
2013-3-17,28.9,21.7,14.4,21.0,11.5,7.0,91,66,43,30.52,30.22,9,2,15,0.00
2013-3-18,42.1,27.7,17.1,29.0,20.3,10.0,94,75,40,30.37,29.65,8,1,13,0.01
2013-3-19,30.5,24.9,20.8,29.0,21.3,17.0,95,86,67,30.02,29.64,14,5,21,0.00
2013-3-20,26.4,22.3,18.7,20.0,15.3,12.0,89,75,61,30.09,30.02,16,7,19,0.00
2013-3-21,28.0,25.9,22.3,24.0,21.6,18.0,91,84,75,30.15,30.03,12,5,16,0.00
2013-3-22,31.9,28.1,22.8,27.0,23.5,19.0,89,82,76,30.23,30.13,7,2,10,0.02
2013-3-23,35.3,30.7,26.6,30.0,25.4,23.0,87,81,69,30.30,30.23,5,1,7,0.04
2013-3-24,37.3,31.7,24.3,28.0,24.0,20.0,87,74,53,30.27,30.00,11,1,12,0.00
2013-3-25,38.6,33.2,23.6,29.0,25.9,20.0,87,75,58,30.18,29.99,7,2,11,0.00
2013-3-26,38.9,34.2,30.8,33.0,29.3,25.0,94,83,62,30.33,30.18,7,2,10,0.01
2013-3-27,40.4,34.1,28.2,31.0,28.1,25.0,90,79,63,30.40,30.31,9,3,13,0.00
2013-3-28,44.1,34.4,25.5,30.0,25.2,22.0,88,70,47,30.45,30.40,5,1,7,0.00
2013-3-29,46.3,31.9,18.3,29.0,21.8,17.0,96,70,35,30.48,30.39,3,0,6,0.00
2013-3-30,51.1,36.5,21.5,39.0,23.8,19.0,96,64,32,30.39,29.95,5,0,7,0.14
2013-3-31,41.2,36.6,28.8,38.0,33.7,20.0,98,90,67,29.95,29.75,17,3,22,0.15